INFORMATIVA BREVE

La informiamo che, per migliorare la sua esperienza di navigazione su questo sito web, utilizziamo diversi tipi di cookie, tra cui:
Cookie di tipo funzionale alla navigazione (functionality cookie); Cookie di tipo pubblicitario (advertising cookie); Cookie di tipo statistico (performance cookie); che consentono di accedere a dati personali raccolti durante la navigazione.
Nella pagina della Informativa Estesa sono presenti le istruzioni per negare il consenso all'installazione di qualunque cookie. Cliccando su "ACCETTA" o continuando la navigazione, saranno attivati tutti i cookie specificati nell'Informativa Estesa ai sensi degli artt. 13 e 14 Reg.to UE 2016/679.

ACCETTA X
Grazie al lavoro settimanale di recupero dei risultati Road, pubblichiamo l'elenco dei soci che durante il 2017 hanno corso almeno una maratona.

E' importante che i dati vengano aggiornati, quindi se avete un tempo migliore rispetto a quello indicato o non siete inseriti, mandateci le vostre segnalazioni e provvederemo a mantenere aggiornata la classifica.

Massimo Gori

Classifica Maratoneti/e Road 2017 in Italia/Mondo
OrdAtletaCatTempoN¡ MarMiglior MarData
1 FRIGERIO MARCO ERNESTO SM40 02:44:55 2 Amburgo (Germania) 23/04/17
2 BETTONICA CARLO SM40 02:55:57 2 Milano 02/04/17
3 CALORI DARIO SM45 02:59:09 3 Ravenna 12/11/17
4 CAPRA ANDREA SM45 02:59:45 2 Valencia (Spagna) 19/11/17
5 D'ALESSANDRO NICOLA SM50 03:02:54 2 Abbiategrasso (MI) 22/10/17
6 GNOCCHI GRAZIANO SM35 03:04:15 2 Pisa 17/12/17
7 BOTTINELLI MARIO SM50 03:05:26 2 Milano 02/04/17
8 SCARICABAROZZI PAOLO SM45 03:06:36 1 Milano 02/04/17
9 PEGURRI PAOLO EMILIO SM45 03:07:13 1 Milano 02/04/17
10 SCALA STEFANO SM45 03:07:29 2 Calderara di Reno (BO) 31/12/17
11 MAESTRONI LUCA SM40 03:08:34 1 Milano 02/04/17
12 PREZIOSA MASSIMO SM50 03:09:34 10 Milano 02/04/17
13 CORTI GIOVANNI SM45 03:11:27 2 Milano 02/04/17
14 GAUDENZI GIORGIO SM45 03:11:48 2 Verona 19/11/17
15 DORIA BEATRICE SF35 03:12:15 1 Parigi 07/04/17
16 REPETTI SANDRO SM45 03:12:57 2 Firenze 26/11/17
17 GARAVELLO EMANUELE SM45 03:13:14 1 Milano 02/04/17
18 CHEMOLLI FRANCESCO SM45 03:13:35 2 Venezia 22/10/17
19 BISCHETTI GIUSEPPE SM55 03:13:37 1 Verona 19/11/17
20 FAVERO ANDREA SM 03:14:06 1 Milano 02/04/17
21 FACCHINELLI DANIEL SM40 03:16:14 16 Salsomaggiore Terme (PR) 26/02/17
22 ISERNIA RUGGIERO SM45 03:16:47 1 Verona 19/11/17
23 PAVESI LUCA SM40 03:17:38 3 Roma 02/04/17
24 BELLI GABRIELE SM40 03:18:49 1 Milano 02/04/17
25 VALSASINA ANDREA SM 03:21:41 1 Pisa 17/12/17
26 MISANI CRISTIANO SM45 03:22:02 2 Milano 02/04/17
27 EKMAN LEIF VIKTOR THOMAS SM40 03:22:28 2 Verona 19/11/17
28 FRANCESCO ASSEGNATI SM45 03:22:33 1 Barcellona (Spagna) 12/03/17
29 CATTANEO ANDREA SM50 03:23:26 1 Milano 02/04/17
30 LUGOBONI MATTEO GIOVANNI SM40 03:23:58 1 Milano 02/04/17
31 GUSSETTI ANGELO SM50 03:25:05 2 Milano 02/04/17
32 TORELLI LUCA SM40 03:25:22 2 Verona 19/11/17
33 SCRIVANI MARIATERESA SF35 03:25:23 1 Milano 02/04/17
34 GALLO MASSIMO SM45 03:25:30 1 Milano 02/04/17
35 PATANO LUCA SM40 03:25:30 1 Milano 02/04/17
36 MELIS ORLANDO SM50 03:25:32 1 Milano 02/04/17
37 GATTA ERMANNO SM40 03:25:59 1 Firenze 26/11/17
38 CORRADINI FABIO SM55 03:26:10 4 Losanna (Svizzera) 22/10/17
39 QUATTRIN IGNAZIO SM40 03:26:45 2 Berlino (Germania) 24/09/17
40 GORI MASSIMO SM50 03:27:09 2 Milano 02/04/17
41 SALLUSTI LAURA SF 03:28:09 2 Milano 02/04/17
42 CONSOLI VINCENZO SM55 03:28:35 1 Venezia 22/10/17
43 CERUTI MASSIMO SM45 03:29:00 1 Milano 02/04/17
44 REBOSIO STEFANO SM45 03:29:06 2 Milano 02/04/17
45 FRISARDI SEBASTIANO SM40 03:29:22 4 Milano 02/04/17
46 ROVEDA ENEA SM35 03:30:12 1 Roma 02/04/17
47 MILANI GIULIANO SM55 03:30:20 1 Milano 02/04/17
48 CARCANO ALESSIO SM45 03:31:01 2 Milano 02/04/17
49 BERETTA ROBERTO SM50 03:31:16 3 Firenze 26/11/17
50 ACCETTURO GIOVANNI SM35 03:31:30 1 Milano 02/04/17
51 BIANCHI SIMONE SM40 03:31:50 1 Firenze 26/11/17
52 DE CICCO GUSTAVO SM45 03:32:04 1 Milano 02/04/17
53 MARCHESE MARCO SM40 03:33:47 1 Boston 17/04/17
54 ANTENUCCI ELVIRA SF45 03:34:55 1 Milano 02/04/17
55 CAZZETTA SIMONE SM35 03:35:13 1 Milano 02/04/17
56 PIROLA MATTEO SM40 03:36:40 1 Milano 02/04/17
57 CANNIZZARO CARMELO SM45 03:37:13 1 Milano 02/04/17
58 CORRADINI ANTONELLA SF35 03:37:40 2 Reggio Emilia 10/12/17
59 MARINI PAOLO SM55 03:38:35 1 Firenze 26/11/17
60 CONDELLO DANIELA SF35 03:39:01 2 Atene (Grecia) 12/11/17
61 ZORDAN LORENZO SM60 03:39:16 1 Milano 02/04/17
62 MOSCHINI JACOPO SM 03:39:23 1 Milano 02/04/17
63 CARTELLI WALTER SM60 03:39:32 2 Brescia 12/03/17
64 BUCCERI MICHELE SM45 03:40:15 2 Reggio Emilia 10/12/17
65 NAVA PAOLO CARLO SM45 03:40:27 1 Venezia 22/10/17
66 PARRAVICINI CRISTINA SF40 03:40:51 1 Milano 02/04/17
67 LEONE SIMONA SF40 03:41:06 3 Reggio Emilia 10/12/17
68 SETZU MAURIZIO SM45 03:42:52 1 Milano 02/04/17
69 BISCHETTI ARMANDO SM55 03:42:59 2 Milano 02/04/17
70 RENZELLI RENZO SM45 03:43:03 1 Berlino (Germania) 24/09/17
71 VERGNANO DAVIDE GIUSEPPE SM40 03:43:03 1 Milano 02/04/17
72 GUIDA DIEGO SM50 03:43:35 1 Boston 17/04/17
73 COZZI MASSIMO SM50 03:43:38 5 Reggio Emilia 10/12/17
74 COLOMBO PAOLO SM45 03:43:45 1 Milano 02/04/17
75 MARSEGLIA MARIO SM50 03:43:52 2 Milano 02/04/17
76 PAGANI LUIGI SM60 03:43:52 1 Milano 02/04/17
77 FANTOZZI STEFANO SM45 03:44:48 3 Pisa 17/12/17
78 MACCHIA GIUSEPPE SM50 03:44:50 1 Milano 02/04/17
79 RE ITALO LOREDANO SM60 03:45:18 1 Milano 02/04/17
80 DALLAVALLE ALESSANDRO SM40 03:45:33 1 Milano 02/04/17
81 VERGNANO GIORGIO SM55 03:45:38 1 Milano 02/04/17
82 VACCARO NICOLA SM 03:45:46 2 Francoforte (Germania) 29/10/17
83 NAVA EMANUELE CARLO SM40 03:45:56 2 Pisa 17/12/17
84 SQUINZI CLAUDIO SM50 03:46:03 3 Firenze 26/11/17
85 GHIDONI ANDREA SM40 03:46:05 1 Milano 02/04/17
86 TROVATO MARIO SM40 03:46:19 2 Pisa 17/12/17
87 CRISCUOLO LUIGI SM45 03:46:42 1 Milano 02/04/17
88 FUMAGALLI LORELLA SF55 03:46:51 2 Milano 02/04/17
89 ESPOSITO FABIO SM35 03:47:01 1 Milano 02/04/17
90 NAVA MARCO ROBERTO SM55 03:47:08 2 Milano 02/04/17
91 DEL MONTE ANDREA SM55 03:47:21 1 Venezia 22/10/17
92 DELLA GRAZIA LORENZO SM40 03:47:22 1 Firenze 26/11/17
93 ANDESE DIEGO SM40 03:47:34 1 Milano 02/04/17
94 CALABRESE FRANCESCO SM55 03:49:38 2 Ravenna 12/11/17
95 NUGNES MAURIZIO SM60 03:49:58 2 Milano 02/04/17
96 OLDANI MAURO SM50 03:51:01 2 Reggio Emilia 10/12/17
97 NAVA ALBERTO SM 03:51:02 2 Reggio Emilia 10/12/17
98 MARCOZZI MARIO SM50 03:51:03 2 Milano 02/04/17
99 GIERZYNSKA ZALEWSKA HANNA LUCJA SF35 03:51:09 2 Roma 02/04/17
100 PATRUNO STEFANO SM45 03:51:10 1 Milano 02/04/17
101 DI FEBO DANIELE SM45 03:51:14 2 Milano 02/04/17
102 GRECCHI PAOLO SM45 03:51:17 1 Verona 19/11/17
103 CHIARELLI LUCA SM45 03:52:19 1 Milano 02/04/17
104 ROMAGNONI MATTEO SM45 03:52:35 1 Firenze 26/11/17
105 XELLA DANIELE SM50 03:52:53 1 Milano 02/04/17
106 LACONI FRANCO SM55 03:52:57 1 Milano 02/04/17
107 MESSINA FRANCESCO SM55 03:53:33 2 Trieste 07/05/17
108 BORRONI MICHELE SM55 03:53:51 1 Milano 02/04/17
109 BOSIO PAOLO SM40 03:54:12 2 Sanremo (IM) 10/12/17
110 RIVA GUIDO ANNIBALE SM50 03:54:41 1 Milano 02/04/17
111 TORRESANI MIRKO SM40 03:55:09 2 Milano 02/04/17
112 PROSPERI GIUSEPPE SM45 03:55:40 1 Firenze 26/11/17
113 FRANCESCHINI TOMMASO SM40 03:55:48 1 Milano 02/04/17
114 ARDENTI ROBERTO SM55 03:56:00 7 Abbiategrasso (MI) 22/10/17
115 SARDO GIANLUCA SM40 03:56:46 1 Reggio Emilia 10/12/17
116 ALBINI ELENA SF45 03:57:09 2 Abbiategrasso (MI) 22/10/17
117 FRANCESCO ORRO SM45 03:57:14 1 Barcellona (Spagna) 12/03/17
118 CATTONI ALESSANDRO SM40 03:58:12 1 New York (Stati Uniti) 05/11/17
119 SCAGLIA RICCARDO SM50 03:58:48 2 Milano 02/04/17
120 ORLANDI RICCARDO SM40 03:58:54 1 Milano 02/04/17
121 TAROLLO NUNZIA SF45 03:59:45 1 New York (Stati Uniti) 05/11/17
122 ZARDINI MATTEO SM40 04:00:12 1 Unesco Cities Marathon (UD) 26/03/17
123 RAVELLI LORENZO SM40 04:00:42 1 Berlino (Germania) 24/09/17
124 BAMBUSI DARIO PAOLO SM55 04:01:04 1 Rimini 30/04/17
125 ORRO FRANCESCO SM50 04:01:42 1 Valencia (Spagna) 19/11/17
126 CROTTI VIVIANA SF55 04:01:50 1 Milano 02/04/17
127 FEROLA RENATO SM40 04:02:24 1 Milano 02/04/17
128 ROVERSELLI LUCA SM60 04:02:33 1 Milano 02/04/17
129 ZAMPEDRI FLAVIO SM60 04:03:06 2 Berlino (Germania) 24/09/17
130 SPECCHIO ALESSANDRO SM45 04:03:10 2 Firenze 26/11/17
131 CAVERA MOIRA SF45 04:04:48 2 Torino 29/10/17
132 FRANCESCA MARCHIORI SF40 04:05:58 1 Barcellona (Spagna) 12/03/17
133 ZARAZAGA MARC SM35 04:06:58 1 Milano 02/04/17
134 RUFFINI RENATO SM50 04:08:03 1 Milano 02/04/17
135 PRESTA ILARIO SM45 04:09:10 1 Milano 02/04/17
136 SASSO PIERMARIO SM65 04:09:56 1 Sanremo (IM) 10/12/17
137 DARI MARCO SM60 04:10:04 7 Valencia (Spagna) 19/11/17
138 BRAMBILLA ANDREA SM40 04:11:25 2 Milano 02/04/17
139 CASOTTI CHRISTIAN SM40 04:11:31 1 Milano 02/04/17
140 MORETTO GIAN ANDREA SM50 04:11:41 1 Milano 02/04/17
141 CHIERICI CESARE SM65 04:11:42 1 Milano 02/04/17
142 MAFFONI MARCO SM45 04:12:12 1 Milano 02/04/17
143 DALMASSO SVEVA SF60 04:12:25 1 Milano 02/04/17
144 GATTONI MASSIMO ROBERTO SM45 04:12:37 1 Milano 02/04/17
145 DIOGUARDI SALVATORE SM45 04:12:57 1 Praga (Repubblica Ceca) 07/05/17
146 MANGO FRANCESCO SM50 04:14:10 1 Milano 02/04/17
147 DI GIACOMO DONATELLO SM45 04:14:18 1 Milano 02/04/17
148 NAVA ARIANNA PIA PF 04:15:24 1 Reggio Emilia 10/12/17
149 BRAMBILLA GIULIANO SM65 04:15:37 4 Firenze 26/11/17
150 RAGGI MARCO SM45 04:15:39 1 Milano 02/04/17
151 TOSI ENRICO SM45 04:17:00 1 Amburgo (Germania) 23/04/17
152 PISTACCHI EMANUELA SF35 04:17:19 1 Firenze 26/11/17
153 BUZZI ANDREA SM45 04:17:20 1 Atene (Grecia) 12/11/17
154 GIUSSANI LILIANA SF55 04:19:48 1 Valencia (Spagna) 19/11/17
155 DISARO' MARILENA SF50 04:19:58 2 New York (Stati Uniti) 05/11/17
156 DE ALLEGRI STEFANO SM45 04:20:09 1 Milano 02/04/17
157 FIOCCHI EMANUELE SM40 04:20:41 1 Milano 02/04/17
158 LIBERO PASQUALINO SM55 04:21:12 1 Milano 02/04/17
159 CHIRICHELLA COSTABILE SM45 04:21:33 1 Milano 02/04/17
160 TIEGHI CHIARA ANGELA SF60 04:22:48 2 Abbiategrasso (MI) 22/10/17
161 COLOMBO MAURIZIO SM40 04:23:22 8 Calderara di Reno (BO) 31/12/17
162 TEMPESTI MARIO FURIO SM45 04:23:23 1 Milano 02/04/17
163 PERACCHIO GIOVANNI SM50 04:23:56 1 Reggio Emilia 10/12/17
164 SCANZIANI SOFIA SF40 04:24:01 1 New York (Stati Uniti) 05/11/17
165 MONIS ANDREA SM45 04:25:24 1 Milano 02/04/17
166 VERDOLIN FABRIZIO SM45 04:26:48 1 Milano 02/04/17
167 FALAUTANO MONICA SF50 04:26:57 2 New York (Stati Uniti) 05/11/17
168 MARIANI SAURO SM40 04:28:10 1 Firenze 26/11/17
169 ZANI ANTONELLA SF50 04:28:32 1 Atene (Grecia) 12/11/17
170 BONOMELLI LORENZO SM45 04:29:37 1 Milano 02/04/17
171 IPPOLITI MASSIMO SM45 04:33:45 1 Trieste 07/05/17
172 ELLI ROBERTO SM60 04:35:28 2 Sanremo (IM) 10/12/17
173 PIRROTTI FERDINANDO MARIO SM40 04:36:24 1 Milano 02/04/17
174 ZANZOTTERA FERRARI ELENA SF40 04:37:18 1 Milano 02/04/17
175 MERCATI GUIDO SM65 04:37:48 1 Milano 02/04/17
176 VERONESI PAOLO SM45 04:40:15 1 Milano 02/04/17
177 GUALDANA SIMONE SM 04:40:37 1 Firenze 26/11/17
178 COLUCCI LAURA SF35 04:40:52 2 Milano 02/04/17
179 VALERIOTI ANDREINA STELLA SF50 04:42:57 1 New York (Stati Uniti) 05/11/17
180 PETTINAROLI ALESSANDRO SM55 04:45:14 1 Firenze 26/11/17
181 DALL'ORA FLAVIA SF40 04:46:35 2 Rimini 30/04/17
182 MAGLIANO ALESSANDRO SM55 04:47:27 1 New York (Stati Uniti) 05/11/17
183 GENOVA SILVIA SF35 04:52:07 1 Milano 02/04/17
184 DAMETTI DANIELA SF45 04:52:49 1 Milano 02/04/17
185 GARIBOLDI MAGDA GIULIANA SF55 04:54:20 1 New York (Stati Uniti) 05/11/17
186 BRUNI LOREDANA SF35 04:58:15 1 Rimini 30/04/17
187 DEGRASSI GIUSEPPE SM80 04:59:13 3 Venezia 22/10/17
188 ROSINA PATRIZIA SF50 04:59:14 1 Milano 02/04/17
189 RICCI GIANLUIGI SM55 05:01:40 1 Milano 02/04/17
190 SAUCHELLA ANTONIO SM 05:05:05 1 Venezia 22/10/17
191 GUASCO RICCARDO SM40 05:08:13 1 Venezia 22/10/17
192 CHIESA VITTORIO SM55 05:09:49 1 Milano 02/04/17
193 CAMPANILE GIUSEPPE SM35 05:12:03 1 Milano 02/04/17
194 GALBUSERA VALERIA SF55 05:13:43 1 Valencia (Spagna) 19/11/17
195 RAZZARI CARLO MICHELE SM65 05:20:38 1 Milano 02/04/17
196 GRILLO GIACOBBE SM65 05:21:48 1 Milano 02/04/17
197 VALMORI SIMONE SM40 05:50:12 1 Interlaken (Svizzera) 09/09/17
198 CARACENI DANIELA SF60 05:54:53 1 Milano 02/04/17
199 MANDELLI PIERGIORGIO SM65 05:58:57 1 Milano 02/04/17


Totale Maratone corse:322
Totale chilometri corsi:13.586,79
Totale Maratoneti:199
Totale Uomini:164
Totale Donne:35
Percentuale Donne:18%




 Questo mese 
 Ottobre 
Lu Ma Me Gi Ve Sa Do
1 2 3 4 5 6 7
8 9 10 11 12 13 14
15 16 17 18 19 20 21
22 23 24 25 26 27 28
29 30 31
Oggi  Oct 22, 2018